Other Public Products
Issued by NWS Grand Forks, ND

Home | Current Version | Previous Version | Graphics & Text | Print | Product List | Glossary On
Versions: 1 2 3 4 5 6 7 8 9 10 11 12 13 14 15 16 17 18 19 20 21 22 23 24 25 26 27 28 29 30 31 32 33 34 35 36 37 38 39 40 41 42 43 44 45 46 47 48 49 50
000
FPUS83 KFGF 020210
OPUFGF
PRAIRIE TO PINES WEATHER ROUNDUP
NATIONAL WEATHER SERVICE EASTERN NORTH DAKOTA/GRAND FORKS ND
900 PM CDT MON JUN 01 2015

 **SATELLITE DATA USED TO AUGMENT SKY COVER AT AUTOMATED STATIONS**
 *****  WEATHER ACROSS EASTERN NORTH DAKOTA  *****

CITY           SKY/WX    TMP DP  RH WIND       PRES   REMARKS
GRAND FORKS    PTCLDY    71  47  42 S17G26    29.88F
GRAND FORKS AF PTCLDY    70  49  46 S16       29.87F
GRAND CITY NWS   N/A     68 N/A N/A S12         N/A
BUXTON         NOT AVBL
DEVILS LAKE    CLOUDY    73  55  53 S8        29.81S
FARGO          CLEAR     71  47  42 SE17G25   29.90F
WAHPETON ARPT  PTCLDY    68  45  42 SE13      29.94F
$$

 *****  WEATHER ACROSS CENTRAL AND WESTERN NORTH DAKOTA  *****

CITY           SKY/WX    TMP DP  RH WIND       PRES   REMARKS
JAMESTOWN      MOCLDY    73  59  61 S10       29.83F
BISMARCK       CLEAR     74  62  66 SE8       29.78F
MINOT          CLOUDY    72  60  66 SW14G24   29.76R
MINOT AFB      CLOUDY    76  65  70 NW5       29.76R
GARRISON         N/A     71  55  56 N28G43    29.81R
WILLISTON      PTCLDY    81  56  42 NE8       29.75R
DICKINSON      MOCLDY    76  61  59 S10       29.76F
HETTINGER      CLOUDY    74  61  63 SE9       29.81S
$$

 *****  OTHER OBSERVATIONS NORTHEAST NORTH DAKOTA  *****

CITY           SKY/WX    TMP DP  RH WIND       PRES   REMARKS
WALHALLA       FAIR      70  50  49 MISG      29.85F
LANGDON        CLOUDY    70  52  52 SE21      29.84F
CAVALIER       MOCLDY    72  50  46 SE10      29.86S
GRAFTON        FAIR      70  50  49 S17       29.88S
CANDO          FAIR      72  55  56 S14       29.81R
FORT TOTTEN    NOT AVBL
ROLLA          FAIR      59  59 100 E13       29.87R
RUGBY          NOT AVBL
 ***** THE ABOVE OBSERVATIONS ARE NON NWS ARE NOT QUALITY
        CONTROLLED AND MAY MIS-REPORT RAIN FOR SNOW...
$$

 *****  OTHER OBSERVATIONS SOUTHEAST NORTH DAKOTA *****

CITY           SKY/WX    TMP DP  RH WIND       PRES   REMARKS
COOPERSTOWN    NOT AVBL
VALLEY CITY    FAIR      72  54  53 S17G23    29.87S
OAKES            N/A     72  59  64 SE15      29.87F
GWINNER        NOT AVBL
SHEYENNE NWR     N/A     71  51  48 SE12      29.95S
BUFFALO        NOT AVBL
WYNDMERE         N/A     72  48  43 SE10        N/A
 ***** THE ABOVE OBSERVATIONS ARE NON NWS ARE NOT QUALITY
       CONTROLLED AND MAY MIS-REPORT RAIN FOR SNOW...
$$

  *****  WEATHER ACROSS NORTHERN MINNESOTA  *****

CITY           SKY/WX    TMP DP  RH WIND       PRES   REMARKS
FLAG ISLAND    MOCLDY    61  48  63 S15       29.97F
WARROAD        CLOUDY    64  48  55 SE12      29.97F
ROSEAU         PTCLDY    64  48  55 S10       29.96F
HALLOCK        PTCLDY    68  45  42 SE16      29.89S
THF RVR FALLS  CLEAR     64  45  48 SE12G17   29.96F
HALSTAD        NOT AVBL
FOSSTON        CLEAR     63  45  51 SE10      29.98F
BAUDETTE       MOCLDY    62  40  44 S9        30.00F
WASKISH        CLOUDY    63  43  48 SE6       30.02F
CROOKSTON      CLEAR     66  46  48 SE14      29.92F
$$
  *****  WEATHER ACROSS CENTRAL AND WEST MINNESOTA  *****

CITY           SKY/WX    TMP DP  RH WIND       PRES   REMARKS
BEMIDJI        PTCLDY    62  38  42 SE13      30.02F
PARK RAPIDS    MOCLDY    65  40  39 SE15      30.03F
WADENA         CLEAR     63  45  51 SE10      30.03F
DETROIT LAKES  CLEAR     66  45  45 S13G21    30.00F
MOORHEAD       CLEAR     70  46  43 SE16      29.92F
FERGUS FALLS   CLEAR     68  45  42 SE15G22   29.97F
ELBOW LAKE     FAIR      67  45  45 SE13G21   29.99S
MORRIS MN      PTCLDY    70  46  43 SE14      29.98F
STAPLES        CLOUDY    63  37  39 SE8       30.05F
WHEATON        PTCLDY    66  48  52 SE13      29.96F
$$
  *****  WEATHER ELSEWHERE ACROSS MINNESOTA  *****

CITY           SKY/WX    TMP DP  RH WIND       PRES   REMARKS
DULUTH         PTCLDY    50  28  42 E9        30.15S
INTRNTL FALLS  CLOUDY    64  37  36 S3        30.04S
ELY            PTCLDY    57  36  44 SE7       30.13S
CLOQUET        PTCLDY    46  30  53 E5        30.14F
BRAINERD       MOCLDY    62  35  36 SE8       30.08F
HIBBING        MOCLDY    59  38  45 SE8       30.11S
ALEXANDRIA     CLEAR     66  42  41 SE15      30.04F
SAINT CLOUD    CLOUDY    64  38  38 SE7       30.09F
MINNEAPOLIS    PTCLDY    65  40  39 SE9       30.11F
$$

  *****  WEATHER ACROSS SOUTH DAKOTA  *****

CITY           SKY/WX    TMP DP  RH WIND       PRES   REMARKS
SIOUX FALLS    MOCLDY    71  48  43 S14       30.00F
BROOKINGS      PTCLDY    72  48  43 S13       29.99F
WATERTOWN      PTCLDY    70  49  47 SE13      29.95F
HURON          CLEAR     74  57  55 S14       29.90F
SISSETON         N/A     72  50  45 S13       29.92F
ABERDEEN       CLEAR     75  58  55 S15       29.87F
MITCHELL       PTCLDY    75  54  47 S15       29.93F
PIERRE         CLEAR     73  63  70 SE9       29.83R
MOBRIDGE       CLEAR     77  63  61 SE13      29.79R
RAPID CITY     CLOUDY    74  60  61 SE7       29.80F
$$

  *****  SOME WEATHER IN NEARBY STATES *****

CITY           SKY/WX    TMP DP  RH WIND       PRES   REMARKS
GLASGOW MT     MOCLDY    75  49  39 NE17      29.78R
GREAT FALLS MT CLOUDY    56  55  97 E17       29.88F
CHEYENNE WY    CLOUDY    64  47  53 SE10      30.06R
SCOTTSBLUFF NE LGT RAIN  68  55  63 S13       29.95R
OMAHA NE       PTCLDY    69  51  52 SE12      30.06S
DES MOINES IA  PTCLDY    65  53  65 S12       30.11S
DAVENPORT IA   CLEAR     62  46  55 E6        30.15F
CHICAGO IL     PTCLDY    51  35  54 NE8       30.21S
EAU CLAIRE WI  MOCLDY    61  37  41 S5        30.16S
LA CROSSE WI   PTCLDY    64  40  41 SE5       30.16S
$$

  *****  SOME NATIONAL WEATHER *****

CITY           SKY/WX    TMP DP  RH WIND       PRES   REMARKS
LA GUARDIA NY  DRIZZLE   53  51  93 NE20      30.15R FOG
RALEIGH NC     MOCLDY    70  68  93 S3        30.03R
ATLANTA GA     CLOUDY    73  66  78 W3        30.04R
NEW ORLEANS LA CLOUDY    77  69  76 S6        29.98F
OKLAHOMA CITY  PTCLDY    72  63  73 S8        30.02R
ALBUQUERQUE NM CLOUDY    80  38  22 NW6       30.09R
SALT LAKE CITY CLOUDY    75  45  34 NW13      29.82S
LOS ANGELES CA MOSUNNY   63  56  78 W12       29.98S
BOISE ID       PTSUNNY   76  47  35 N17       29.77R THUNDER
SEATTLE WA     CLOUDY    58  51  78 S7        29.94S
$$

*** WEATHER ACROSS MANITOBA...SASKATCHEWAN AND ONTARIO ***
                ***ONTARIO***

CITY           SKY/WX    TMP DP  RH WIND       PRES   REMARKS
GERALDTON      PTCLDY    52  28  40 SW6       30.20F
THUNDER BAY    MOCLDY    45  34  65 E10       30.20F
SIOUX LOOKOUT  MOCLDY    63  39  42 S6        30.04S
TORONTO        MOCLDY    54  46  76 W2        30.21R
BIG TROUT LK   MOCLDY    55  32  41 S10       29.94F
PICKLE LAKE    MOCLDY    63  27  25 S8        30.03F
DRYDEN         CLOUDY    64  37  36 S9        30.02F
KENORA         CLOUDY    63  43  48 S12       29.98F
$$
                *** MANITOBA***

CITY           SKY/WX    TMP DP  RH WIND       PRES   REMARKS
BRANDON        PTCLDY    64  59  82 S5        29.81R
DAUPHIN        CLEAR     73  57  56 SW6       29.77S
ISLAND LAKE    MOCLDY    63  45  51 S12G18    29.79F
PILOT MOUND      N/A     59  57  94 NE15G21     N/A
THE PAS        MOCLDY    61  46  59 NW17      29.78R
THOMPSON       MOCLDY    55  54  94 SW7       29.68S
WINNIPEG       MOCLDY    68  50  52 S18       29.87F
LYNN LAKE      CLOUDY    48  41  76 NW17G31   29.74R
CHURCHILL      CLOUDY    52  46  82 S14       29.55F
GILLAM         MOCLDY    55  45  67 S13G22    29.67S
$$
                ***SASKATCHEWAN***

CITY           SKY/WX    TMP DP  RH WIND       PRES   REMARKS
ESTEVAN        MOCLDY    73  57  56 N15       29.80R
KINDERSLEY     PTSUNNY   70  43  37 NE9       29.92R
LLOYDMINSTER   MOSUNNY   59  41  51 N13       29.96R
PRINCE ALBERT  PTCLDY    63  46  55 NW9       29.89S
REGINA         MOCLDY    70  43  37 N14G20    29.86R



USA.gov is the U.S. government's official web portal to all federal, state and local government web resources and services.